Regional Weather Roundup
Issued by NWS Cleveland, OH

Home | Current Version | Previous Version | Text Only | Print | Product List | Glossary Off
Versions: 1 2 3 4 5 6 7 8 9 10 11 12 13 14 15 16 17 18 19 20 21 22 23 24 25 26 27 28 29 30 31 32 33 34 35 36 37 38 39 40 41 42 43 44 45 46 47 48 49 50

000
ASUS41 KCLE 170810
RWRCLE
OHIO REGIONAL WEATHER ROUNDUP
NATIONAL WEATHER SERVICE WILMINGTON, OH
400 AM EDT THU AUG 17 2017

NOTE: "FAIR" INDICATES FEW OR NO CLOUDS BELOW 12,000 FEET WITH NO
SIGNIFICANT WEATHER AND/OR OBSTRUCTIONS TO VISIBILITY.

OHZ001>008-015>018-024>027-034-035-043-044-170900-
   NORTHWEST OHIO

CITY           SKY/WX    TMP DP  RH WIND       PRES   REMARKS
DEFIANCE       CLOUDY    71  69  93 NE3       29.90F
FINDLAY        FAIR      73  68  84 SE9       29.91F
TOLEDO EXPRESS FAIR      69  65  86 SE3       29.90F
TOLEDO EXEC    FAIR      69  64  84 SE6       29.92F
LIMA           MOCLDY    73  71  93 S6        29.92F
$$

OHZ009>014-019>023-028>033-038-089-170900-
   NORTHEAST OHIO

CITY           SKY/WX    TMP DP  RH WIND       PRES   REMARKS
CLE-HOPKINS    MOCLDY    74  59  59 SE8       29.97F
CLE-LAKEFRONT  FAIR      73  56  54 SE12      29.95F
CUY CO. ARPT   NOT AVBL
LORAIN-ELYRIA  FAIR      67  57  70 S6        29.96F
ASHTABULA      MOCLDY    64  58  80 SE6       30.02F
AKRON-CANTON   FAIR      70  60  70 SE7       30.00F
WOOSTER        FAIR      65  63  93 SE5       29.98F
MANSFIELD      FAIR      71  67  87 SE8       29.97F
YOUNGSTOWN     FAIR      63  57  81 E8        30.01F
$$

OHZ042-051>053-060>062-070>072-077>081-170900-
  SOUTHWEST OHIO

CITY           SKY/WX    TMP DP  RH WIND       PRES   REMARKS
CINC-COVINGTON FAIR      74  72  93 S7        29.94S
CINC-LUNKEN    MOCLDY    73  72  96 CALM      29.94S
HAMILTON       FAIR      73  71  93 CALM      29.94S
DAYTON         FAIR      75  70  84 S7        29.95S
WRIGHT-PAT AFB DRIZZLE   74  74 100 S6        29.94F
DAYTON GENERAL FAIR      73  71  93 S6        29.94F
WILMINGTON     FAIR      72  72 100 S5        29.95F
$$

OHZ036-037-039>041-045>050-054>059-063>069-073>076-082>088-170900-
  CENTRAL AND SOUTHEAST OHIO

CITY           SKY/WX    TMP DP  RH WIND       PRES   REMARKS
COLUMBUS       FAIR      75  71  87 CALM      29.95F
OSU AIRPORT    FAIR      75  72  90 SE6       29.95F
BOLTON FIELD   FAIR      71  70  98 S5        29.96F FOG
RICKENBACK AFB FAIR      72  70  96 S5        29.95S
NEWARK         FAIR      69  67  93 CALM      29.96F FOG
MARION         FAIR      71  67  87 S8        29.95F
LANCASTER      FAIR      70  69  97 SE5       29.96F FOG
ZANESVILLE     FAIR      70  67  90 CALM      29.97F
NEW PHILLY     FAIR      66  65  96 SE3       29.99F
$$




USA.gov is the U.S. government's official web portal to all federal, state and local government web resources and services.